Aberdeen, SD

11:44 AM CDT on August 21, 2017 (GMT -0500)
Aberdeen Regional

Weather History for KABR - November, 2012

Change the Weather History Date:

Wednesday, November 28, 2012

  Actual Average Record
Temperature  
Mean Temperature 26 °F 22 °F  
Max Temperature 42 °F 32 °F 59 °F (1949)
Min Temperature 10 °F 13 °F -21 °F (1985)
Degree Days  
Heating Degree Days 39 43  
Month to date heating degree days 930 987  
Since 1 July heating degree days 1812 1878  
Cooling Degree Days 0 0  
Month to date cooling degree days 0 0  
Year to date cooling degree days 764 525  
Moisture  
Dew Point 13 °F    
Average Humidity 68    
Maximum Humidity 92    
Minimum Humidity 43    
Precipitation  
Precipitation 0.00 in 0.01 in 0.98 in (1905)
Month to date precipitation 0.38 0.69  
Year to date precipitation 13.89 21.16  
Snow  
Snow 0.00 in - - ()
Month to date snowfall 0.6  
Since 1 July snowfall 0.6  
Snow Depth 0.00 in    
Sea Level Pressure  
Sea Level Pressure 30.21 in    
Wind  
Wind Speed 6 mph (South)    
Max Wind Speed 20 mph    
Max Gust Speed 24 mph    
Visibility 5 miles    
Events Fog    
T = Trace of Precipitation, MM = Missing Value Source: NWS Daily Summary

Daily Weather History Graph

Daily Weather History Graph

Search for Another Location

Airport or City:

Trip Planner

Search our weather history database for the weather conditions in past years. The results will help you decide how hot, cold, wet, or windy it might be!

Date:

Astronomy

Nov. 28, 2012 Rise Set
Actual Time 7:50 AM CST 4:53 PM CST
Civil Twilight 7:17 AM CST 5:26 PM CST
Nautical Twilight 6:40 AM CST 6:03 PM CST
Astronomical Twilight 6:04 AM CST 6:38 PM CST
Moon 5:08 PM CST (11/28) 7:49 AM CST (11/28)
Length of Visible Light 10h 09m
Length of Day
9h 02m
Full, 100% of the Moon is Illuminated
Nov 28
Full
Dec 6
Last Quarter
Dec 13
New
Dec 19
First Quarter
Dec 28
Full

Hourly Weather History & Observations

Time (CST) Temp. Windchill Dew Point Humidity Pressure Visibility Wind Dir Wind Speed Gust Speed Precip Events Conditions
12:02 AM 10.4 °F - 6.8 °F 85% 30.27 in 1.5 mi Calm Calm - N/A   Clear
12:41 AM 12.2 °F - 8.6 °F 85% 30.27 in 2.0 mi Calm Calm - N/A   Clear
12:53 AM 12.0 °F - 8.1 °F 84% 30.34 in 2.5 mi Calm Calm - N/A   Partly Cloudy
1:09 AM 12.2 °F - 6.8 °F 79% 30.27 in 2.0 mi Calm Calm - N/A   Haze
1:16 AM 10.4 °F - 6.8 °F 85% 30.27 in 1.8 mi Calm Calm - N/A   Scattered Clouds
1:19 AM 10.4 °F - 6.8 °F 85% 30.27 in 1.2 mi Calm Calm - N/A   Mostly Cloudy
1:35 AM 10.4 °F - 6.8 °F 85% 30.27 in 1.8 mi Calm Calm - N/A   Mostly Cloudy
1:42 AM 10.4 °F - 6.8 °F 85% 30.27 in 0.8 mi Calm Calm - N/A   Haze
1:51 AM 10.4 °F - 6.8 °F 85% 30.27 in 0.2 mi Calm Calm - N/A Fog Light Freezing Fog
1:53 AM 10.9 °F - 8.1 °F 88% 30.34 in 0.2 mi Calm Calm - N/A Fog Light Freezing Fog
2:53 AM 10.0 °F - 8.1 °F 92% 30.35 in 0.2 mi Calm Calm - N/A Fog Light Freezing Fog
3:53 AM 10.9 °F - 9.0 °F 92% 30.34 in 0.2 mi Calm Calm - N/A Fog Light Freezing Fog
4:53 AM 10.0 °F - 8.1 °F 92% 30.33 in 0.5 mi Calm Calm - N/A Fog Light Freezing Fog
5:04 AM 10.4 °F - 6.8 °F 85% 30.26 in 0.2 mi Calm Calm - N/A Fog Light Freezing Fog
5:50 AM 10.4 °F - 8.6 °F 92% 30.25 in 0.5 mi Calm Calm - N/A Fog Light Freezing Fog
5:53 AM 10.9 °F 4.7 °F 8.1 °F 88% 30.32 in 0.5 mi SE 3.5 mph - N/A Fog Light Freezing Fog
6:03 AM 10.4 °F - 8.6 °F 92% 30.25 in 0.2 mi Calm Calm - N/A Fog Light Freezing Fog
6:48 AM 12.2 °F - 8.6 °F 85% 30.24 in 0.5 mi Calm Calm - N/A Fog Light Freezing Fog
6:53 AM 12.0 °F 4.1 °F 9.0 °F 88% 30.32 in 0.5 mi South 4.6 mph - N/A Fog Light Freezing Fog
7:53 AM 14.0 °F 6.5 °F 10.9 °F 88% 30.30 in 0.8 mi South 4.6 mph - N/A   Mist
8:03 AM 14.0 °F 3.9 °F 10.4 °F 86% 30.23 in 1.2 mi SSW 6.9 mph - N/A   Overcast
8:11 AM 14.0 °F 5.1 °F 10.4 °F 86% 30.24 in 2.0 mi SSW 5.8 mph - N/A   Overcast
8:23 AM 14.0 °F 6.5 °F 10.4 °F 86% 30.23 in 3.0 mi SSW 4.6 mph - N/A   Mostly Cloudy
8:31 AM 12.2 °F 2.9 °F 10.4 °F 92% 30.23 in 4.0 mi South 5.8 mph - N/A   Scattered Clouds
8:53 AM 16.0 °F 7.4 °F 10.9 °F 81% 30.30 in 6.0 mi South 5.8 mph - N/A   Haze
9:53 AM 24.1 °F 13.1 °F 19.9 °F 84% 30.27 in 9.0 mi South 11.5 mph - N/A   Clear
10:53 AM 28.9 °F 19.2 °F 25.0 °F 85% 30.24 in 10.0 mi South 11.5 mph - N/A   Clear
11:53 AM 32.0 °F 21.2 °F 26.1 °F 79% 30.19 in 10.0 mi South 16.1 mph - N/A   Clear
12:53 PM 39.0 °F 30.6 °F 24.1 °F 55% 30.14 in 10.0 mi South 15.0 mph - N/A   Clear
1:53 PM 39.9 °F 31.8 °F 23.0 °F 51% 30.10 in 10.0 mi South 15.0 mph - N/A   Clear
2:53 PM 39.9 °F 33.4 °F 23.0 °F 51% 30.07 in 10.0 mi South 10.4 mph - N/A   Clear
3:53 PM 42.1 °F 36.6 °F 21.9 °F 45% 30.06 in 10.0 mi South 9.2 mph - N/A   Clear
4:53 PM 37.9 °F 32.1 °F 21.0 °F 51% 30.07 in 10.0 mi SSE 8.1 mph - N/A   Clear
5:53 PM 33.1 °F 28.7 °F 19.9 °F 59% 30.06 in 10.0 mi South 4.6 mph - N/A   Clear
6:53 PM 30.9 °F 27.5 °F 19.9 °F 64% 30.05 in 10.0 mi SSE 3.5 mph - N/A   Clear
7:53 PM 28.0 °F - 19.0 °F 69% 30.06 in 10.0 mi Calm Calm - N/A   Clear
8:53 PM 23.0 °F 18.4 °F 17.1 °F 78% 30.05 in 10.0 mi NNE 3.5 mph - N/A   Clear
9:53 PM 21.9 °F 15.7 °F 17.1 °F 82% 30.06 in 10.0 mi North 4.6 mph - N/A   Clear
10:53 PM 19.9 °F 13.4 °F 15.1 °F 81% 30.06 in 10.0 mi NNE 4.6 mph - N/A   Clear
11:53 PM 19.0 °F 13.9 °F 14.0 °F 81% 30.06 in 10.0 mi North 3.5 mph - N/A   Clear